| time (UTC) | temp C | wind direction | speed KPH | gust KPH | rain 1hr cm | rain 24hr cm | rain mn cm | humidity % | barometer mb |
| 20260506165836 | 18 | 0 | 6.4 | 8.0 | 0.00 | 0.00 | 0.00 | 44 | 1015.6 |
| 20260506164731 | 18 | 0 | 4.8 | 8.0 | 0.00 | 0.00 | 0.00 | 45 | 1015.6 |
| 20260506164231 | 18 | 0 | 4.8 | 12.9 | 0.00 | 0.00 | 0.00 | 46 | 1015.6 |
| 20260506163732 | 17 | 0 | 6.4 | 12.9 | 0.00 | 0.00 | 0.00 | 46 | 1015.7 |
| 20260506163236 | 17 | 0 | 6.4 | 12.9 | 0.00 | 0.00 | 0.00 | 47 | 1015.7 |
| 20260506162735 | 17 | 0 | 4.8 | 12.9 | 0.00 | 0.00 | 0.00 | 48 | 1015.7 |
| 20260506162730 | 17 | 0 | 6.4 | 12.9 | 0.00 | 0.00 | 0.00 | 47 | 1015.7 |
| 20260506161729 | 17 | 0 | 4.8 | 12.9 | 0.00 | 0.00 | 0.00 | 49 | 1015.7 |
| 20260506161229 | 16 | 0 | 6.4 | 12.9 | 0.00 | 0.00 | 0.00 | 51 | 1015.7 |
| 20260506160729 | 16 | 0 | 6.4 | 12.9 | 0.00 | 0.00 | 0.00 | 52 | 1015.8 |
| 20260506160229 | 16 | 0 | 6.4 | 12.9 | 0.00 | 0.00 | 0.00 | 53 | 1015.8 |
| 20260506155730 | 16 | 0 | 6.4 | 14.5 | 0.00 | 0.00 | 0.00 | 53 | 1015.7 |
| 20260506155229 | 15 | 0 | 6.4 | 14.5 | 0.00 | 0.00 | 0.00 | 54 | 1015.7 |
| 20260506154735 | 15 | 0 | 4.8 | 9.7 | 0.00 | 0.00 | 0.00 | 56 | 1015.7 |
| 20260506154728 | 15 | 117 | 6.4 | 11.3 | 0.00 | 0.00 | 0.00 | 55 | 1015.7 |
| 20260506154229 | 15 | 116 | 4.8 | 11.3 | 0.00 | 0.00 | 0.00 | 55 | 1015.7 |
| 20260506153227 | 15 | 0 | 4.8 | 8.0 | 0.00 | 0.00 | 0.00 | 57 | 1015.7 |
| 20260506152727 | 14 | 0 | 6.4 | 12.9 | 0.00 | 0.00 | 0.00 | 58 | 1015.7 |
| 20260506152225 | 14 | 0 | 4.8 | 12.9 | 0.00 | 0.00 | 0.00 | 59 | 1015.6 |
| 20260506151723 | 13 | 113 | 4.8 | 12.9 | 0.00 | 0.00 | 0.00 | 60 | 1015.6 |
| 20260506151227 | 13 | 0 | 6.4 | 12.9 | 0.00 | 0.00 | 0.00 | 62 | 1015.7 |
| 20260506151223 | 13 | 0 | 6.4 | 12.9 | 0.00 | 0.00 | 0.00 | 61 | 1015.6 |
| 20260506150223 | 12 | 109 | 6.4 | 12.9 | 0.00 | 0.00 | 0.00 | 63 | 1015.6 |
| 20260506145728 | 12 | 0 | 6.4 | 12.9 | 0.00 | 0.00 | 0.00 | 63 | 1015.6 |
| 20260506145222 | 12 | 0 | 8.0 | 12.9 | 0.00 | 0.00 | 0.00 | 64 | 1015.5 |
| 20260506144723 | 12 | 0 | 6.4 | 14.5 | 0.00 | 0.00 | 0.00 | 64 | 1015.6 |
| 20260506144223 | 11 | 87 | 6.4 | 14.5 | 0.00 | 0.00 | 0.00 | 66 | 1015.5 |
| 20260506143722 | 11 | 0 | 6.4 | 12.9 | 0.00 | 0.00 | 0.00 | 67 | 1015.5 |
| 20260506143227 | 11 | 0 | 4.8 | 9.7 | 0.00 | 0.00 | 0.00 | 68 | 1015.5 |
| 20260506143223 | 11 | 0 | 6.4 | 9.7 | 0.00 | 0.00 | 0.00 | 67 | 1015.4 |
| 20260506142221 | 10 | 96 | 3.2 | 9.7 | 0.00 | 0.00 | 0.00 | 68 | 1015.4 |
| 20260506141719 | 10 | 0 | 3.2 | 4.8 | 0.00 | 0.00 | 0.00 | 69 | 1015.3 |
| 20260506141223 | 10 | 92 | 6.4 | 16.1 | 0.00 | 0.00 | 0.00 | 70 | 1015.1 |
| 20260506141219 | 10 | 92 | 4.8 | 11.3 | 0.00 | 0.00 | 0.00 | 70 | 1015.2 |
| 20260506140824 | 10 | 91 | 6.4 | 16.1 | 0.00 | 0.00 | 0.00 | 69 | 1015.2 |
| 20260506135720 | 10 | 88 | 4.8 | 11.3 | 0.00 | 0.00 | 0.00 | 72 | 1015.1 |
| 20260506135219 | 9 | 88 | 4.8 | 11.3 | 0.00 | 0.00 | 0.00 | 71 | 1015.0 |
| 20260506134716 | 9 | 89 | 3.2 | 11.3 | 0.00 | 0.00 | 0.00 | 71 | 1015.0 |
| 20260506134218 | 9 | 84 | 6.4 | 16.1 | 0.00 | 0.00 | 0.00 | 71 | 1015.0 |
| 20260506133721 | 10 | 0 | 8.0 | 16.1 | 0.00 | 0.00 | 0.00 | 68 | 1014.9 |
| 20260506133716 | 9 | 89 | 9.7 | 16.1 | 0.00 | 0.00 | 0.00 | 70 | 1014.9 |
| 20260506133322 | 10 | 0 | 6.4 | 16.1 | 0.00 | 0.00 | 0.00 | 67 | 1014.5 |
| 20260506132716 | 10 | 0 | 6.4 | 16.1 | 0.00 | 0.00 | 0.00 | 68 | 1014.7 |
| 20260506131717 | 10 | 133 | 6.4 | 16.1 | 0.00 | 0.00 | 0.00 | 65 | 1014.5 |
| 20260506131216 | 11 | 0 | 14.5 | 33.8 | 0.00 | 0.00 | 0.00 | 61 | 1014.5 |
| 20260506130717 | 13 | 0 | 22.5 | 41.8 | 0.00 | 0.00 | 0.00 | 60 | 1014.4 |
| 20260506130217 | 13 | 0 | 25.7 | 41.8 | 0.00 | 0.00 | 0.00 | 60 | 1014.1 |
| 20260506125716 | 13 | 0 | 24.1 | 38.6 | 0.00 | 0.00 | 0.00 | 59 | 1014.1 |
| 20260506125217 | 13 | 0 | 20.9 | 35.4 | 0.00 | 0.00 | 0.00 | 59 | 1014.1 |
| 20260506124716 | 13 | 0 | 19.3 | 33.8 | 0.00 | 0.00 | 0.00 | 58 | 1014.0 |
| 20260506124217 | 13 | 0 | 20.9 | 33.8 | 0.00 | 0.00 | 0.00 | 59 | 1014.1 |
| 20260506123822 | 13 | 0 | 22.5 | 40.2 | 0.00 | 0.00 | 0.00 | 60 | 1013.9 |
| 20260506123721 | 13 | 0 | 22.5 | 38.6 | 0.00 | 0.00 | 0.00 | 60 | 1013.8 |
| 20260506123717 | 13 | 0 | 22.5 | 38.6 | 0.00 | 0.00 | 0.00 | 60 | 1014.0 |
| 20260506122216 | 13 | 0 | 24.1 | 41.8 | 0.00 | 0.00 | 0.00 | 60 | 1013.9 |
| 20260506121717 | 13 | 0 | 24.1 | 41.8 | 0.00 | 0.00 | 0.00 | 60 | 1013.9 |
| 20260506121217 | 13 | 0 | 22.5 | 32.2 | 0.00 | 0.00 | 0.00 | 61 | 1013.9 |
| 20260506120722 | 13 | 0 | 20.9 | 33.8 | 0.00 | 0.00 | 0.00 | 59 | 1013.8 |
| 20260506120717 | 13 | 0 | 22.5 | 33.8 | 0.00 | 0.00 | 0.00 | 61 | 1013.8 |
| 20260506115716 | 13 | 0 | 22.5 | 43.5 | 0.00 | 0.00 | 0.00 | 58 | 1013.8 |
| 20260506115217 | 13 | 0 | 20.9 | 43.5 | 0.00 | 0.00 | 0.00 | 58 | 1013.8 |
| 20260506114716 | 13 | 0 | 19.3 | 40.2 | 0.00 | 0.00 | 0.00 | 60 | 1013.7 |
| 20260506114217 | 13 | 0 | 25.7 | 45.1 | 0.00 | 0.00 | 0.00 | 61 | 1013.8 |
| 20260506113716 | 13 | 0 | 27.4 | 45.1 | 0.00 | 0.00 | 0.00 | 60 | 1013.7 |
| 20260506113217 | 13 | 0 | 24.1 | 40.2 | 0.00 | 0.00 | 0.00 | 60 | 1013.6 |
| 20260506112720 | 13 | 0 | 20.9 | 35.4 | 0.00 | 0.00 | 0.00 | 58 | 1013.8 |
| 20260506112716 | 13 | 0 | 22.5 | 38.6 | 0.00 | 0.00 | 0.00 | 60 | 1013.7 |
| 20260506111716 | 13 | 0 | 22.5 | 37.0 | 0.00 | 0.00 | 0.00 | 60 | 1013.8 |
| 20260506111217 | 13 | 0 | 25.7 | 40.2 | 0.00 | 0.00 | 0.00 | 61 | 1013.7 |
| 20260506110717 | 13 | 0 | 24.1 | 40.2 | 0.00 | 0.00 | 0.00 | 61 | 1013.7 |
| 20260506110216 | 13 | 0 | 22.5 | 37.0 | 0.00 | 0.00 | 0.00 | 58 | 1013.6 |
| 20260506105717 | 13 | 0 | 22.5 | 37.0 | 0.00 | 0.00 | 0.00 | 58 | 1013.6 |
| 20260506105216 | 13 | 0 | 20.9 | 35.4 | 0.00 | 0.00 | 0.00 | 58 | 1013.6 |
| 20260506104721 | 13 | 0 | 22.5 | 33.8 | 0.00 | 0.00 | 0.00 | 59 | 1013.5 |
| 20260506104717 | 13 | 0 | 20.9 | 33.8 | 0.00 | 0.00 | 0.00 | 58 | 1013.5 |
| 20260506103717 | 13 | 0 | 22.5 | 33.8 | 0.00 | 0.00 | 0.00 | 61 | 1013.5 |
| 20260506103220 | 13 | 0 | 22.5 | 41.8 | 0.00 | 0.00 | 0.00 | 59 | 1013.6 |
| 20260506103216 | 13 | 0 | 24.1 | 41.8 | 0.00 | 0.00 | 0.00 | 60 | 1013.6 |
| 20260506102217 | 13 | 0 | 20.9 | 41.8 | 0.00 | 0.00 | 0.00 | 57 | 1013.4 |
| 20260506101716 | 13 | 0 | 20.9 | 32.2 | 0.00 | 0.00 | 0.00 | 58 | 1013.5 |
| 20260506101217 | 13 | 0 | 24.1 | 37.0 | 0.00 | 0.00 | 0.00 | 60 | 1013.3 |
| 20260506100716 | 13 | 0 | 22.5 | 37.0 | 0.00 | 0.00 | 0.00 | 60 | 1013.4 |
| 20260506100217 | 13 | 0 | 20.9 | 33.8 | 0.00 | 0.00 | 0.00 | 60 | 1013.4 |
| 20260506095717 | 13 | 0 | 22.5 | 37.0 | 0.00 | 0.00 | 0.00 | 60 | 1013.5 |
| 20260506095216 | 13 | 0 | 22.5 | 37.0 | 0.00 | 0.00 | 0.00 | 59 | 1013.4 |
| 20260506094717 | 13 | 0 | 24.1 | 38.6 | 0.00 | 0.00 | 0.00 | 58 | 1013.4 |
| 20260506094215 | 13 | 0 | 24.1 | 38.6 | 0.00 | 0.00 | 0.00 | 59 | 1013.4 |
| 20260506093721 | 13 | 0 | 24.1 | 37.0 | 0.00 | 0.00 | 0.00 | 59 | 1013.3 |
| 20260506093717 | 13 | 224 | 24.1 | 35.4 | 0.00 | 0.00 | 0.00 | 58 | 1013.3 |
| 20260506092716 | 13 | 0 | 24.1 | 37.0 | 0.00 | 0.00 | 0.00 | 60 | 1013.3 |
| 20260506092217 | 13 | 0 | 24.1 | 37.0 | 0.00 | 0.00 | 0.00 | 59 | 1013.3 |
| 20260506091714 | 13 | 0 | 24.1 | 37.0 | 0.00 | 0.00 | 0.00 | 57 | 1013.2 |
| 20260506091214 | 14 | 0 | 24.1 | 37.0 | 0.00 | 0.00 | 0.00 | 55 | 1013.3 |
| 20260506090715 | 14 | 0 | 22.5 | 37.0 | 0.00 | 0.00 | 0.00 | 57 | 1013.4 |
| 20260506090212 | 13 | 0 | 22.5 | 37.0 | 0.00 | 0.00 | 0.00 | 59 | 1013.3 |
| 20260506085711 | 13 | 0 | 24.1 | 37.0 | 0.00 | 0.00 | 0.00 | 60 | 1013.3 |
| 20260506085210 | 13 | 267 | 22.5 | 37.0 | 0.00 | 0.00 | 0.00 | 59 | 1013.4 |
| 20260506084710 | 13 | 0 | 22.5 | 41.8 | 0.00 | 0.00 | 0.00 | 58 | 1013.4 |
| 20260506084210 | 14 | 0 | 24.1 | 41.8 | 0.00 | 0.00 | 0.00 | 57 | 1013.4 |
| 20260506083710 | 14 | 0 | 22.5 | 33.8 | 0.00 | 0.00 | 0.00 | 57 | 1013.5 |
| 20260506083208 | 14 | 0 | 22.5 | 33.8 | 0.00 | 0.00 | 0.00 | 57 | 1013.4 |
| 20260506082708 | 13 | 0 | 24.1 | 33.8 | 0.00 | 0.00 | 0.00 | 58 | 1013.4 |
| 20260506082208 | 13 | 0 | 22.5 | 37.0 | 0.00 | 0.00 | 0.00 | 58 | 1013.3 |
| 20260506081707 | 13 | 0 | 22.5 | 37.0 | 0.00 | 0.00 | 0.00 | 58 | 1013.4 |
| 20260506081206 | 13 | 0 | 24.1 | 37.0 | 0.00 | 0.00 | 0.00 | 58 | 1013.5 |
| 20260506080721 | 14 | 0 | 25.7 | 38.6 | 0.00 | 0.00 | 0.00 | 57 | 1013.3 |
| 20260506080706 | 14 | 0 | 24.1 | 38.6 | 0.00 | 0.00 | 0.00 | 57 | 1013.4 |
| 20260506072700 | 14 | 0 | 24.1 | 38.6 | 0.00 | 0.00 | 0.00 | 57 | 1013.2 |
| 20260506072200 | 14 | 0 | 22.5 | 37.0 | 0.00 | 0.00 | 0.00 | 57 | 1013.2 |
| 20260506071700 | 14 | 0 | 24.1 | 33.8 | 0.00 | 0.00 | 0.00 | 57 | 1013.2 |
| 20260506071203 | 14 | 0 | 25.7 | 38.6 | 0.00 | 0.00 | 0.00 | 57 | 1013.1 |
| 20260506071158 | 14 | 0 | 24.1 | 38.6 | 0.00 | 0.00 | 0.00 | 57 | 1013.2 |
| 20260506070159 | 14 | 0 | 27.4 | 40.2 | 0.00 | 0.00 | 0.00 | 57 | 1012.9 |
| 20260506062156 | 14 | 0 | 20.9 | 33.8 | 0.00 | 0.00 | 0.00 | 55 | 1012.5 |
| 20260506061658 | 14 | 0 | 22.5 | 35.4 | 0.00 | 0.00 | 0.00 | 55 | 1012.5 |
| 20260506061156 | 14 | 0 | 24.1 | 46.7 | 0.00 | 0.00 | 0.00 | 55 | 1012.5 |
| 20260506060654 | 14 | 0 | 25.7 | 46.7 | 0.00 | 0.00 | 0.00 | 56 | 1012.4 |
| 20260506060154 | 14 | 0 | 27.4 | 46.7 | 0.00 | 0.00 | 0.00 | 56 | 1012.3 |
| 20260506051150 | 14 | 0 | 29.0 | 46.7 | 0.00 | 0.00 | 0.00 | 56 | 1011.9 |
| 20260506050648 | 14 | 0 | 27.4 | 43.5 | 0.00 | 0.00 | 0.00 | 56 | 1011.8 |
| 20260506050149 | 14 | 0 | 25.7 | 43.5 | 0.00 | 0.00 | 0.00 | 56 | 1011.8 |
| 20260506044648 | 14 | 0 | 25.7 | 38.6 | 0.00 | 0.00 | 0.00 | 57 | 1011.6 |
| 20260506044149 | 14 | 0 | 27.4 | 40.2 | 0.00 | 0.00 | 0.00 | 57 | 1011.6 |
| 20260506043648 | 14 | 0 | 27.4 | 40.2 | 0.00 | 0.00 | 0.00 | 57 | 1011.5 |
| 20260506043148 | 14 | 0 | 25.7 | 40.2 | 0.00 | 0.00 | 0.00 | 57 | 1011.5 |
| 20260506042646 | 14 | 0 | 25.7 | 43.5 | 0.00 | 0.00 | 0.00 | 58 | 1011.5 |
| 20260506042146 | 14 | 0 | 25.7 | 43.5 | 0.00 | 0.00 | 0.00 | 58 | 1011.2 |
| 20260506041647 | 14 | 0 | 27.4 | 38.6 | 0.00 | 0.00 | 0.00 | 58 | 1011.2 |
| 20260506041146 | 14 | 0 | 27.4 | 43.5 | 0.00 | 0.00 | 0.00 | 59 | 1011.1 |
| 20260506040646 | 13 | 0 | 27.4 | 43.5 | 0.00 | 0.00 | 0.00 | 60 | 1011.1 |
| 20260506040147 | 13 | 0 | 27.4 | 38.6 | 0.00 | 0.00 | 0.00 | 60 | 1011.0 |
| 20260506035646 | 13 | 0 | 29.0 | 43.5 | 0.00 | 0.00 | 0.00 | 60 | 1010.9 |
| 20260506035147 | 14 | 0 | 30.6 | 48.3 | 0.00 | 0.00 | 0.00 | 59 | 1011.0 |
| 20260506034650 | 14 | 0 | 27.4 | 43.5 | 0.00 | 0.00 | 0.00 | 59 | 1010.7 |
| 20260506034646 | 14 | 0 | 29.0 | 48.3 | 0.00 | 0.00 | 0.00 | 59 | 1010.9 |
| 20260506033644 | 14 | 0 | 29.0 | 46.7 | 0.00 | 0.00 | 0.00 | 59 | 1010.7 |
| 20260506033144 | 14 | 0 | 30.6 | 46.7 | 0.00 | 0.00 | 0.00 | 58 | 1010.6 |
| 20260506032644 | 14 | 0 | 29.0 | 46.7 | 0.00 | 0.00 | 0.00 | 58 | 1010.5 |
| 20260506032144 | 14 | 0 | 25.7 | 38.6 | 0.00 | 0.00 | 0.00 | 59 | 1010.5 |
| 20260506031649 | 14 | 0 | 29.0 | 43.5 | 0.00 | 0.00 | 0.00 | 58 | 1010.3 |
| 20260506031644 | 14 | 0 | 27.4 | 41.8 | 0.00 | 0.00 | 0.00 | 58 | 1010.5 |
| 20260506030649 | 14 | 0 | 29.0 | 46.7 | 0.00 | 0.00 | 0.00 | 58 | 1010.2 |
| 20260506030644 | 14 | 0 | 25.7 | 43.5 | 0.00 | 0.00 | 0.00 | 58 | 1010.2 |
| 20260506025644 | 14 | 0 | 29.0 | 46.7 | 0.00 | 0.00 | 0.00 | 57 | 1010.2 |
| 20260506025146 | 14 | 0 | 29.0 | 48.3 | 0.00 | 0.00 | 0.00 | 57 | 1010.0 |
| 20260506025142 | 14 | 0 | 32.2 | 48.3 | 0.00 | 0.00 | 0.00 | 57 | 1009.9 |
| 20260506024746 | 15 | 0 | 33.8 | 48.3 | 0.00 | 0.00 | 0.00 | 57 | 1009.9 |
| 20260506023642 | 15 | 0 | 32.2 | 49.9 | 0.00 | 0.00 | 0.00 | 56 | 1009.9 |
| 20260506023142 | 15 | 0 | 27.4 | 49.9 | 0.00 | 0.00 | 0.00 | 56 | 1009.8 |
| 20260506022642 | 15 | 0 | 29.0 | 49.9 | 0.00 | 0.00 | 0.00 | 56 | 1009.6 |
| 20260506022142 | 15 | 0 | 29.0 | 49.9 | 0.00 | 0.00 | 0.00 | 56 | 1009.9 |
| 20260506021642 | 15 | 0 | 27.4 | 43.5 | 0.00 | 0.00 | 0.00 | 55 | 1009.6 |
| 20260506021142 | 15 | 0 | 30.6 | 43.5 | 0.00 | 0.00 | 0.00 | 55 | 1009.5 |
| 20260506020641 | 15 | 0 | 30.6 | 45.1 | 0.00 | 0.00 | 0.00 | 55 | 1009.5 |
| 20260506020142 | 15 | 0 | 29.0 | 46.7 | 0.00 | 0.00 | 0.00 | 55 | 1009.3 |
| 20260506015642 | 15 | 0 | 29.0 | 46.7 | 0.00 | 0.00 | 0.00 | 54 | 1009.4 |
| 20260506015142 | 16 | 0 | 29.0 | 46.7 | 0.00 | 0.00 | 0.00 | 54 | 1009.4 |
| 20260506014642 | 15 | 0 | 29.0 | 51.5 | 0.00 | 0.00 | 0.00 | 55 | 1009.3 |
| 20260506014142 | 16 | 0 | 30.6 | 51.5 | 0.00 | 0.00 | 0.00 | 54 | 1009.2 |
| 20260506013642 | 16 | 0 | 30.6 | 46.7 | 0.00 | 0.00 | 0.00 | 54 | 1009.2 |
| 20260506013142 | 16 | 0 | 30.6 | 48.3 | 0.00 | 0.00 | 0.00 | 53 | 1009.0 |
| 20260506012643 | 16 | 0 | 30.6 | 49.9 | 0.00 | 0.00 | 0.00 | 52 | 1009.1 |
| 20260506012142 | 16 | 0 | 32.2 | 49.9 | 0.00 | 0.00 | 0.00 | 52 | 1009.0 |
| 20260506011641 | 16 | 0 | 32.2 | 51.5 | 0.00 | 0.00 | 0.00 | 52 | 1008.9 |
| 20260506011142 | 16 | 0 | 35.4 | 51.5 | 0.00 | 0.00 | 0.00 | 52 | 1008.9 |
| 20260506011138 | 16 | 0 | 33.8 | 48.3 | 0.00 | 0.00 | 0.00 | 52 | 1008.9 |
| 20260506010138 | 17 | 0 | 30.6 | 48.3 | 0.00 | 0.00 | 0.00 | 49 | 1008.9 |
| 20260506005638 | 17 | 0 | 30.6 | 49.9 | 0.00 | 0.00 | 0.00 | 51 | 1008.7 |
| 20260506005137 | 17 | 0 | 30.6 | 54.7 | 0.00 | 0.00 | 0.00 | 49 | 1008.7 |
| 20260506004638 | 17 | 0 | 32.2 | 54.7 | 0.00 | 0.00 | 0.00 | 51 | 1008.7 |
| 20260506004143 | 17 | 0 | 35.4 | 49.9 | 0.00 | 0.00 | 0.00 | 51 | 1008.6 |
| 20260506004138 | 16 | 0 | 33.8 | 49.9 | 0.00 | 0.00 | 0.00 | 52 | 1008.6 |
| 20260506003141 | 16 | 0 | 37.0 | 59.5 | 0.00 | 0.00 | 0.00 | 52 | 1008.8 |
| 20260506003137 | 16 | 0 | 37.0 | 59.5 | 0.00 | 0.00 | 0.00 | 52 | 1008.8 |
| 20260506002136 | 16 | 0 | 37.0 | 56.3 | 0.00 | 0.00 | 0.00 | 52 | 1008.8 |
| 20260506001635 | 17 | 0 | 38.6 | 57.9 | 0.00 | 0.00 | 0.00 | 52 | 1008.7 |
| 20260506001136 | 16 | 0 | 38.6 | 57.9 | 0.00 | 0.00 | 0.00 | 52 | 1008.7 |
| 20260506000640 | 17 | 0 | 35.4 | 53.1 | 0.00 | 0.00 | 0.00 | 52 | 1008.7 |
| 20260506000636 | 17 | 0 | 37.0 | 57.9 | 0.00 | 0.00 | 0.00 | 52 | 1008.6 |
| 20260505235636 | 17 | 0 | 33.8 | 48.3 | 0.00 | 0.00 | 0.00 | 52 | 1008.6 |
| 20260505235135 | 17 | 0 | 32.2 | 48.3 | 0.00 | 0.00 | 0.00 | 49 | 1008.4 |
| 20260505234636 | 17 | 0 | 33.8 | 53.1 | 0.00 | 0.00 | 0.00 | 51 | 1008.4 |
| 20260505234136 | 17 | 0 | 33.8 | 53.1 | 0.00 | 0.00 | 0.00 | 51 | 1008.4 |
| 20260505233636 | 17 | 0 | 35.4 | 53.1 | 0.00 | 0.00 | 0.00 | 52 | 1008.4 |
| 20260505233136 | 17 | 0 | 38.6 | 53.1 | 0.00 | 0.00 | 0.00 | 52 | 1008.5 |
| 20260505232636 | 17 | 0 | 37.0 | 51.5 | 0.00 | 0.00 | 0.00 | 51 | 1008.5 |
| 20260505232136 | 17 | 0 | 32.2 | 49.9 | 0.00 | 0.00 | 0.00 | 49 | 1008.6 |
| 20260505231636 | 18 | 0 | 30.6 | 48.3 | 0.00 | 0.00 | 0.00 | 49 | 1008.4 |
| 20260505231139 | 17 | 0 | 32.2 | 48.3 | 0.00 | 0.00 | 0.00 | 49 | 1008.5 |
| 20260505231135 | 18 | 0 | 30.6 | 46.7 | 0.00 | 0.00 | 0.00 | 48 | 1008.5 |
| 20260505230739 | 18 | 0 | 30.6 | 45.1 | 0.00 | 0.00 | 0.00 | 48 | 1008.5 |
| 20260505225634 | 18 | 0 | 32.2 | 46.7 | 0.00 | 0.00 | 0.00 | 49 | 1008.6 |
| 20260505225133 | 17 | 0 | 33.8 | 49.9 | 0.00 | 0.00 | 0.00 | 49 | 1008.5 |
| 20260505224638 | 17 | 0 | 35.4 | 53.1 | 0.00 | 0.00 | 0.00 | 49 | 1008.7 |
| 20260505224634 | 17 | 0 | 33.8 | 49.9 | 0.00 | 0.00 | 0.00 | 49 | 1008.6 |
| 20260505223633 | 17 | 0 | 32.2 | 53.1 | 0.00 | 0.00 | 0.00 | 49 | 1008.7 |
| 20260505223138 | 18 | 0 | 29.0 | 43.5 | 0.00 | 0.00 | 0.00 | 49 | 1008.8 |
| 20260505223133 | 18 | 0 | 30.6 | 48.3 | 0.00 | 0.00 | 0.00 | 48 | 1008.7 |
| 20260505222134 | 18 | 0 | 29.0 | 43.5 | 0.00 | 0.00 | 0.00 | 48 | 1009.0 |
| 20260505221633 | 18 | 0 | 27.4 | 43.5 | 0.00 | 0.00 | 0.00 | 49 | 1009.0 |
| 20260505221133 | 18 | 0 | 25.7 | 41.8 | 0.00 | 0.00 | 0.00 | 48 | 1009.1 |
| 20260505220634 | 17 | 0 | 29.0 | 46.7 | 0.00 | 0.00 | 0.00 | 51 | 1009.1 |
| 20260505220134 | 17 | 0 | 32.2 | 46.7 | 0.00 | 0.00 | 0.00 | 49 | 1009.2 |
| 20260505215634 | 17 | 0 | 33.8 | 48.3 | 0.00 | 0.00 | 0.00 | 51 | 1009.2 |
| 20260505215138 | 17 | 0 | 30.6 | 46.7 | 0.00 | 0.00 | 0.00 | 52 | 1009.2 |
| 20260505215134 | 17 | 0 | 30.6 | 48.3 | 0.00 | 0.00 | 0.00 | 52 | 1009.2 |
| 20260505214133 | 17 | 0 | 32.2 | 51.5 | 0.00 | 0.00 | 0.00 | 52 | 1009.3 |
| 20260505213634 | 17 | 0 | 32.2 | 51.5 | 0.00 | 0.00 | 0.00 | 49 | 1009.2 |
| 20260505213133 | 18 | 0 | 32.2 | 48.3 | 0.00 | 0.00 | 0.00 | 49 | 1009.3 |
| 20260505212634 | 18 | 0 | 30.6 | 51.5 | 0.00 | 0.00 | 0.00 | 49 | 1009.2 |
| 20260505212134 | 18 | 0 | 30.6 | 51.5 | 0.00 | 0.00 | 0.00 | 49 | 1009.3 |
| 20260505211638 | 18 | 0 | 30.6 | 46.7 | 0.00 | 0.00 | 0.00 | 49 | 1009.4 |
| 20260505211634 | 17 | 0 | 30.6 | 48.3 | 0.00 | 0.00 | 0.00 | 49 | 1009.3 |
| 20260505210633 | 17 | 0 | 32.2 | 45.1 | 0.00 | 0.00 | 0.00 | 49 | 1009.3 |
| 20260505210138 | 18 | 0 | 29.0 | 46.7 | 0.00 | 0.00 | 0.00 | 48 | 1009.4 |
| 20260505210134 | 18 | 0 | 30.6 | 46.7 | 0.00 | 0.00 | 0.00 | 49 | 1009.3 |
| 20260505205138 | 18 | 0 | 29.0 | 46.7 | 0.00 | 0.00 | 0.00 | 49 | 1009.3 |
| 20260505204639 | 17 | 0 | 30.6 | 48.3 | 0.00 | 0.00 | 0.00 | 48 | 1009.3 |
| 20260505204133 | 18 | 0 | 30.6 | 48.3 | 0.00 | 0.00 | 0.00 | 48 | 1009.4 |
| 20260505203638 | 18 | 0 | 27.4 | 43.5 | 0.00 | 0.00 | 0.00 | 47 | 1009.4 |
| 20260505203633 | 17 | 0 | 29.0 | 45.1 | 0.00 | 0.00 | 0.00 | 48 | 1009.4 |
| 20260505202633 | 18 | 0 | 29.0 | 45.1 | 0.00 | 0.00 | 0.00 | 47 | 1009.4 |
| 20260505202138 | 17 | 0 | 27.4 | 48.3 | 0.00 | 0.00 | 0.00 | 48 | 1009.3 |
| 20260505202134 | 18 | 0 | 29.0 | 45.1 | 0.00 | 0.00 | 0.00 | 47 | 1009.4 |
| 20260505201633 | 18 | 0 | 29.0 | 48.3 | 0.00 | 0.00 | 0.00 | 46 | 1009.4 |
| 20260505200632 | 18 | 0 | 25.7 | 40.2 | 0.00 | 0.00 | 0.00 | 46 | 1009.3 |
| 20260505200132 | 18 | 0 | 27.4 | 43.5 | 0.00 | 0.00 | 0.00 | 47 | 1009.4 |
| 20260505195629 | 18 | 0 | 27.4 | 43.5 | 0.00 | 0.00 | 0.00 | 46 | 1009.3 |
| 20260505195134 | 18 | 0 | 27.4 | 41.8 | 0.00 | 0.00 | 0.00 | 46 | 1009.5 |
| 20260505194630 | 18 | 0 | 25.7 | 45.1 | 0.00 | 0.00 | 0.00 | 46 | 1009.3 |
| 20260505194127 | 18 | 0 | 25.7 | 45.1 | 0.00 | 0.00 | 0.00 | 46 | 1009.5 |
| 20260505193627 | 18 | 0 | 27.4 | 46.7 | 0.00 | 0.00 | 0.00 | 46 | 1009.5 |
| 20260505193128 | 17 | 0 | 32.2 | 46.7 | 0.00 | 0.00 | 0.00 | 47 | 1009.5 |
| 20260505192630 | 18 | 0 | 29.0 | 45.1 | 0.00 | 0.00 | 0.00 | 46 | 1009.4 |
| 20260505192626 | 17 | 0 | 30.6 | 45.1 | 0.00 | 0.00 | 0.00 | 47 | 1009.4 |
| 20260505191626 | 18 | 0 | 25.7 | 43.5 | 0.00 | 0.00 | 0.00 | 47 | 1009.4 |
| 20260505191126 | 18 | 0 | 27.4 | 45.1 | 0.00 | 0.00 | 0.00 | 48 | 1009.4 |
| 20260505190625 | 17 | 0 | 30.6 | 45.1 | 0.00 | 0.00 | 0.00 | 47 | 1009.5 |
| 20260505190126 | 18 | 0 | 30.6 | 43.5 | 0.00 | 0.00 | 0.00 | 48 | 1009.4 |
| 20260505185625 | 17 | 0 | 27.4 | 43.5 | 0.00 | 0.00 | 0.00 | 48 | 1009.3 |
| 20260505185125 | 18 | 0 | 27.4 | 41.8 | 0.00 | 0.00 | 0.00 | 47 | 1009.4 |
| 20260505184629 | 17 | 0 | 29.0 | 41.8 | 0.00 | 0.00 | 0.00 | 47 | 1009.3 |
| 20260505184624 | 18 | 0 | 29.0 | 41.8 | 0.00 | 0.00 | 0.00 | 47 | 1009.3 |
| 20260505183627 | 17 | 0 | 29.0 | 49.9 | 0.00 | 0.00 | 0.00 | 47 | 1009.3 |
| 20260505183623 | 17 | 0 | 29.0 | 45.1 | 0.00 | 0.00 | 0.00 | 48 | 1009.3 |
| 20260505182623 | 17 | 0 | 29.0 | 49.9 | 0.00 | 0.00 | 0.00 | 48 | 1009.3 |
| 20260505182129 | 17 | 0 | 29.0 | 41.8 | 0.00 | 0.00 | 0.00 | 48 | 1009.2 |
| 20260505181728 | 17 | 0 | 29.0 | 45.1 | 0.00 | 0.00 | 0.00 | 49 | 1009.2 |
| 20260505181628 | 17 | 0 | 29.0 | 43.5 | 0.00 | 0.00 | 0.00 | 48 | 1009.3 |
| 20260505181624 | 17 | 0 | 29.0 | 43.5 | 0.00 | 0.00 | 0.00 | 47 | 1009.2 |
| 20260505180123 | 17 | 0 | 27.4 | 45.1 | 0.00 | 0.00 | 0.00 | 49 | 1009.2 |
| 20260505175622 | 17 | 0 | 27.4 | 41.8 | 0.00 | 0.00 | 0.00 | 49 | 1009.2 |
| 20260505175122 | 16 | 0 | 27.4 | 41.8 | 0.00 | 0.00 | 0.00 | 51 | 1009.3 |
| 20260505174621 | 16 | 0 | 25.7 | 40.2 | 0.00 | 0.00 | 0.00 | 52 | 1009.2 |
| 20260505174122 | 16 | 0 | 27.4 | 43.5 | 0.00 | 0.00 | 0.00 | 53 | 1009.2 |
| 20260505173620 | 16 | 0 | 29.0 | 43.5 | 0.00 | 0.00 | 0.00 | 53 | 1009.2 |
| 20260505173119 | 16 | 0 | 30.6 | 48.3 | 0.00 | 0.00 | 0.00 | 53 | 1009.2 |
| 20260505172620 | 16 | 0 | 33.8 | 51.5 | 0.00 | 0.00 | 0.00 | 53 | 1009.1 |
| 20260505172119 | 15 | 0 | 35.4 | 51.5 | 0.00 | 0.00 | 0.00 | 53 | 1009.2 |
| 20260505171619 | 15 | 0 | 32.2 | 49.9 | 0.00 | 0.00 | 0.00 | 53 | 1009.0 |
| 20260505171119 | 16 | 0 | 30.6 | 48.3 | 0.00 | 0.00 | 0.00 | 52 | 1009.1 |
| 20260505170619 | 15 | 0 | 32.2 | 45.1 | 0.00 | 0.00 | 0.00 | 55 | 1009.1 |
| 20260505170118 | 15 | 0 | 32.2 | 46.7 | 0.00 | 0.00 | 0.00 | 56 | 1009.1 |